WESTFORD NEEDLES, 5702

Orbit data source: Space-Track

WESTFORD NEEDLES, 5702 is space debris in LEO originally from a launch on Thu, 09 May 1963 UTC launched from the Air Force Western Test Range (AFWTR). Debris objects in space refer to the collection of defunct objects orbiting the Earth. Examples of debris include non-operational satellites, rocket bodies, and fragments generated from explosions, collisions, or faulty payload assembly.

Loading next visibility...
Identifier
5702, 1963-014CU
Orbit
LEO
Country
Flag of USUS
Related business
Manufacturer
Unknown
Mission
Spacecraft
Bus & Motor
Unknown
Mass
Unknown
Launch date (UTC)
1963-05-09 (63 years ago)
Launch vehicle
Unknown
Launch site
Air Force Western Test Range (AFWTR)
Object type
Payload
Rocket body
Debris
Shape & HBR
Unknown shape, 0.1 m
Radar Cross Section
Medium (>0.1 m² and <1 m²)

Expand to show TLE details & history
Last TLE update: 23 hours ago

TLE from 23 hours ago
0 WESTFORD NEEDLES
1 05702U 63014CU  26125.57208699 -.00000092  00000-0 -64186-2 0  9990
2 05702  86.1263  70.0909 1891809 204.8913 144.7778  8.75620069423202
Epoch: 2026-05-05T13:43Z
TLE epoch observation values (Epoch: 2026-05-05T13:43:48.315Z)
Latitude
0.00004°
Longitude
0.69458°
Altitude
5,199.221 km
Speed
5.365 km/s
True Right ascension
04h 40m 21s
True Declination
0° 00' 00"
Sunlit
Object was in daylight at epoch
Visualization orbit readout
Latitude
Unknown
Longitude
Unknown
Altitude
Unknown
Speed
Unknown
Apparent Right ascension
Unknown
Apparent Declination
Unknown
Sunlit
N/A
Visualization observer readout
Local Sidereal Time
20:14:08
Azimuth
Unknown
Elevation
Unknown
Doppler factor
Unknown
Orbital elements
Apogee altitude
5,443.351 km
Perigee altitude
1,682.107 km
Semi-major axis
9,940.866 km
Eccentricity
0.18918
Inclination
86.1263°
RAAN
70.0909°
Arg. of periapsis
204.8913°
True anomaly
155.19126°
Mean anomaly
144.7778°
Eccentric anomaly
150.16962°
Mean motion
2.18981 °/min
Orbital period
164.4 mins
BSTAR
-0.0064186
Loading maneuver chart data...
Computing Atmospheric mass density...

Documentation

Showing up to 5 results
|